9M2SES-13 Weather Reports


Display with metric or nautical units.
time (UTC)temp
F
wind
direction
speed
MPH
gust
MPH
rain 1hr
in
rain 24hr
in
rain mn
in
humidity
%
barometer
mb
20260509173243 80 315 0.0 15.0 0.00 0.00 0.00 95
20260509170241 80 225 7.0 15.0 0.00 0.00 0.00 95
20260509163238 82 315 0.0 15.0 0.00 0.00 0.00 95
20260509162238 80 315 0.0 23.0 0.00 0.00 0.00 95
20260509161237 80 315 0.0 31.0 0.00 0.00 0.00 95
20260509160237 82 0 15.0 23.0 0.00 0.00 0.00 95
20260509155235 82 315 15.0 23.0 0.00 0.00 0.27 95
20260509154235 82 315 0.0 15.0 0.00 0.00 0.27 95
20260509150231 82 225 7.0 15.0 0.00 0.00 0.27 95
20260509145231 82 225 0.0 15.0 0.00 0.00 0.27 95
20260509144230 82 315 0.0 15.0 0.00 0.00 0.27 95
20260509143229 82 315 0.0 23.0 0.00 0.00 0.27 95
20260509142229 82 315 0.0 15.0 0.00 0.00 0.27 95
20260509141228 84 315 7.0 23.0 0.00 0.00 0.27 95
20260509140228 84 315 0.0 15.0 0.00 0.00 0.27 95
20260509135227 84 90 0.0 15.0 0.00 0.00 0.27 95
20260509134226 84 315 0.0 15.0 0.00 0.00 0.27 95
20260509133225 82 180 0.0 7.0 0.00 0.00 0.27 95
20260509130223 84 0 7.0 31.0 0.00 0.00 0.27 95
20260509124222 84 315 0.0 15.0 0.00 0.00 0.27 85
20260509123224 84 315 0.0 0.0 0.00 0.00 0.27 95
20260509121219 82 315 7.0 31.0 0.00 0.00 0.27 95
20260509120219 82 225 15.0 31.0 0.00 0.00 0.27 95
20260509114217 82 225 0.0 55.0 0.00 0.00 0.27 95
20260509113216 82 225 23.0 39.0 0.00 0.00 0.27 95
20260509111216 84 225 23.0 71.0 0.00 0.00 0.27 95
20260509105214 86 225 0.0 31.0 0.00 0.00 0.27 95
20260509103217 84 225 0.0 31.0 0.00 0.00 0.27 95
20260509101211 84 0 23.0 126.0 0.00 0.00 0.27 95
20260509095208 84 315 15.0 55.0 0.00 0.00 0.27 95
20260509093207 86 0 15.0 55.0 0.00 0.00 0.27 95
20260509092206 86 270 23.0 55.0 0.00 0.00 0.27 95
20260509084203 86 0 31.0 95.0 0.00 0.00 0.27 95
20260509082202 89 180 0.0 39.0 0.00 0.00 0.27 95
20260509080201 89 315 7.0 15.0 0.00 0.00 0.27 95
20260509074200 89 180 15.0 39.0 0.00 0.00 0.27 79
20260509072157 89 225 7.0 47.0 0.00 0.00 0.27 28
20260509071156 91 180 23.0 87.0 0.00 0.00 0.27 11
20260509065155 93 315 23.0 102.0 0.00 0.00 0.27 10
20260509064154 93 180 47.0 102.0 0.00 0.00 0.27 10
20260509062152 91 225 31.0 87.0 0.00 0.00 0.27 10
20260509060151 95 225 31.0 79.0 0.00 0.00 0.27 10
20260509054149 93 180 31.0 87.0 0.00 0.00 0.27 10
20260509052147 93 225 15.0 63.0 0.00 0.00 0.27 10
20260509050145 95 225 47.0 87.0 0.00 0.00 0.27 10
20260509045144 91 225 31.0 47.0 0.00 0.00 0.27 10
20260509043142 91 225 31.0 63.0 0.00 0.00 0.27 10
20260509040140 91 225 15.0 71.0 0.00 0.00 0.27 11
20260509034138 89 270 31.0 63.0 0.00 0.00 0.27 46
20260509032136 89 180 31.0 71.0 0.00 0.00 0.27 33
20260509030134 89 90 23.0 31.0 0.00 0.00 0.27 31
20260509023131 89 315 0.0 39.0 0.00 0.00 0.27 95
20260509021129 86 180 15.0 47.0 0.00 0.00 0.27 95
20260509015128 87 180 7.0 39.0 0.00 0.00 0.27 95
20260509014127 86 315 15.0 31.0 0.00 0.00 0.27 95
20260509012125 84 225 0.0 31.0 0.00 0.00 0.27 95
20260509011124 82 225 15.0 31.0 0.00 0.00 0.27 95
20260509010124 84 225 7.0 23.0 0.00 0.00 0.27 95
20260509004122 82 225 0.0 23.0 0.00 0.00 0.27 95
20260509001120 80 225 0.0 15.0 0.00 0.00 0.27 95
20260508235117 78 225 0.0 0.0 0.00 0.00 0.27 95
20260508234116 78 225 0.0 0.0 0.00 0.00 0.27 95
20260508233116 78 315 0.0 0.0 0.00 0.00 0.27 95
20260508231114 78 225 0.0 0.0 0.00 0.00 0.27 95
20260508224112 78 315 0.0 0.0 0.00 0.00 0.27 95
20260508223112 78 315 0.0 15.0 0.00 0.00 0.27 95
20260508222111 78 315 15.0 23.0 0.00 0.00 0.27 82
20260508221111 78 135 7.0 15.0 0.00 0.00 0.27 95
20260508220110 78 225 0.0 0.0 0.00 0.00 0.27 95
20260508215109 78 225 0.0 7.0 0.00 0.00 0.27 95
20260508214109 77 225 0.0 15.0 0.00 0.00 0.27 95
20260508213108 78 225 15.0 15.0 0.00 0.00 0.27 95
20260508212108 78 225 0.0 0.0 0.00 0.00 0.27 95
20260508203104 78 315 0.0 15.0 0.00 0.00 0.27 95
20260508202103 78 315 0.0 15.0 0.00 0.00 0.27 95
20260508201102 78 315 7.0 15.0 0.00 0.00 0.27 95
20260508194105 78 225 0.0 15.0 0.00 0.00 0.27 95
20260508193059 78 225 0.0 15.0 0.00 0.00 0.27 95
20260508192059 78 225 0.0 7.0 0.00 0.00 0.27 95
20260508191058 78 315 0.0 15.0 0.00 0.00 0.27 95
20260508183055 77 180 15.0 31.0 0.00 0.00 0.27 95
20260508181053 77 225 7.0 15.0 0.00 0.00 0.27 87